TimeMDT,TemperatureF,Dew PointF,Humidity,Sea Level PressureIn,VisibilityMPH,Wind Direction,Wind SpeedMPH,Gust SpeedMPH,PrecipitationIn,Events,Conditions,WindDirDegrees,DateUTC
12:53 AM,55.9,28.9,36,29.91,9.0,WSW,6.9,-,N/A,,Clear,250,2012-10-03 06:53:00
1:53 AM,55.9,24.1,29,29.94,8.0,West,10.4,-,N/A,,Clear,280,2012-10-03 07:53:00
2:53 AM,55.0,21.0,27,29.96,5.0,WNW,15.0,-,N/A,,Haze,290,2012-10-03 08:53:00
3:46 AM,53.6,24.8,33,30.05,4.0,West,15.0,-,N/A,,Haze,280,2012-10-03 09:46:00
3:53 AM,53.1,26.1,35,30.00,7.0,West,13.8,-,N/A,,Mostly Cloudy,280,2012-10-03 09:53:00
4:14 AM,51.8,26.6,38,30.07,7.0,West,12.7,-,N/A,,Overcast,270,2012-10-03 10:14:00
4:53 AM,51.1,25.0,36,30.03,7.0,WNW,10.4,-,N/A,,Overcast,290,2012-10-03 10:53:00
5:03 AM,51.8,24.8,35,30.09,7.0,WNW,12.7,-,N/A,,Overcast,290,2012-10-03 11:03:00
5:49 AM,50.0,23.0,35,30.11,7.0,WNW,13.8,-,N/A,,Scattered Clouds,300,2012-10-03 11:49:00
5:53 AM,50.0,23.0,35,30.06,7.0,WNW,13.8,-,N/A,,Partly Cloudy,300,2012-10-03 11:53:00
6:53 AM,48.0,21.9,36,30.10,5.0,WNW,18.4,-,N/A,,Haze,300,2012-10-03 12:53:00
7:53 AM,45.0,19.9,37,30.13,3.0,WNW,11.5,-,N/A,,Haze,300,2012-10-03 13:53:00
8:53 AM,46.0,16.0,30,30.16,10.0,NW,11.5,-,N/A,,Clear,310,2012-10-03 14:53:00
9:53 AM,48.0,16.0,28,30.19,4.0,WNW,16.1,-,N/A,,Haze,300,2012-10-03 15:53:00
10:53 AM,53.1,12.0,20,30.19,10.0,NW,15.0,25.3,N/A,,Clear,320,2012-10-03 16:53:00
11:53 AM,55.9,10.0,16,30.19,10.0,NW,19.6,-,N/A,,Clear,310,2012-10-03 17:53:00
12:53 PM,57.0,10.9,16,30.20,10.0,NW,20.7,27.6,N/A,,Clear,320,2012-10-03 18:53:00
1:53 PM,60.1,10.0,14,30.18,10.0,NW,18.4,-,N/A,,Clear,310,2012-10-03 19:53:00
2:53 PM,62.1,10.9,13,30.15,10.0,WNW,15.0,26.5,N/A,,Clear,290,2012-10-03 20:53:00
3:53 PM,64.0,10.9,13,30.14,10.0,NW,15.0,21.9,N/A,,Clear,310,2012-10-03 21:53:00
4:53 PM,64.0,10.9,13,30.13,10.0,WNW,17.3,-,N/A,,Clear,300,2012-10-03 22:53:00
5:53 PM,64.0,12.0,13,30.13,10.0,WNW,13.8,-,N/A,,Clear,300,2012-10-03 23:53:00
6:53 PM,62.1,14.0,15,30.13,10.0,West,9.2,-,N/A,,Clear,280,2012-10-04 00:53:00
7:53 PM,57.0,16.0,20,30.16,10.0,West,3.5,-,N/A,,Clear,270,2012-10-04 01:53:00
8:53 PM,51.1,17.1,26,30.17,10.0,Calm,Calm,-,N/A,,Clear,0,2012-10-04 02:53:00
9:53 PM,48.9,18.0,29,30.17,10.0,Calm,Calm,-,N/A,,Clear,0,2012-10-04 03:53:00
10:53 PM,48.0,18.0,30,30.17,10.0,Calm,Calm,-,N/A,,Clear,0,2012-10-04 04:53:00
11:53 PM,43.0,16.0,34,30.18,10.0,SE,8.1,-,N/A,,Clear,130,2012-10-04 05:53:00